VE3KSR Weather Reports


Display with metric or nautical units.
time (UTC)temp
F
wind
direction
speed
MPH
gust
MPH
rain 1hr
in
rain 24hr
in
rain mn
in
humidity
%
barometer
mb
20170530030106 57 270 12.0 18.0 3.41 0.00 0.00 81 1015.0
20170530025604 57 257 12.0 17.0 3.41 0.00 0.00 83 1015.1
20170530025104 57 257 12.0 16.0 3.41 0.00 0.00 84 1014.9
20170530024604 57 266 10.0 13.0 3.41 0.00 0.00 85 1015.0
20170530024107 57 250 11.0 14.0 3.41 0.00 0.00 85 1014.9
20170530023604 57 229 12.0 15.0 3.41 0.00 0.00 85 1014.7
20170530023104 57 243 12.0 16.0 3.41 0.00 0.00 85 1014.6
20170530022604 57 240 12.0 14.0 3.41 0.00 0.00 84 1014.6
20170530022104 57 257 12.0 15.0 3.41 0.00 0.00 85 1014.6
20170530021604 57 248 10.0 13.0 3.41 0.00 0.00 84 1014.4
20170530021104 57 248 12.0 14.0 3.41 0.00 0.00 84 1014.4
20170530020604 57 246 13.0 16.0 3.41 0.00 0.00 83 1014.1
20170530020104 57 255 12.0 15.0 3.41 0.00 0.00 83 1014.0
20170530015604 58 256 11.0 13.0 3.41 0.00 0.00 82 1013.7
20170530015104 57 256 11.0 13.0 3.41 0.00 0.00 82 1013.6
20170530014604 57 248 10.0 12.0 3.41 0.00 0.00 82 1013.6
20170530014104 57 250 11.0 13.0 3.41 0.00 0.00 82 1013.5
20170530013604 57 250 11.0 13.0 3.41 0.00 0.00 82 1013.4
20170530013104 57 245 11.0 14.0 3.41 0.00 0.00 83 1013.3
20170530012604 57 243 10.0 12.0 3.41 0.00 0.00 84 1013.0
20170530012104 57 235 10.0 12.0 3.41 0.00 0.00 84 1013.0
20170530011604 57 242 10.0 14.0 3.41 0.00 0.00 85 1013.0
20170530011104 57 252 7.0 10.0 3.41 0.00 0.00 86 1012.9
20170530010604 57 236 7.0 11.0 3.41 0.00 0.00 87 1013.0
20170530010104 57 236 8.0 10.0 3.41 0.00 0.00 88 1012.9
20170530005605 57 233 9.0 14.0 3.41 0.00 0.00 88 1013.0
20170530005106 57 242 9.0 12.0 3.41 0.00 0.00 87 1013.0
20170530004605 57 245 10.0 13.0 3.41 0.00 0.00 87 1013.0
20170530004105 57 238 11.0 14.0 3.41 0.00 0.00 88 1012.9
20170530003604 57 239 12.0 17.0 3.41 0.00 0.00 88 1012.9
20170530003105 57 235 14.0 19.0 3.41 0.00 0.00 88 1012.9
20170530002605 57 238 16.0 20.0 3.41 0.00 0.00 89 1012.9
20170530002104 57 235 14.0 20.0 3.41 0.00 0.00 90 1012.9
20170530001605 57 257 16.0 20.0 3.41 0.00 0.00 92 1013.1
20170530001108 56 239 15.0 20.0 3.41 0.00 0.00 93 1013.3
20170530000605 56 243 14.0 19.0 3.41 0.00 0.00 94 1013.4
20170530000107 56 248 15.0 22.0 3.41 0.00 0.00 93 1013.5
20170529235606 56 232 16.0 20.0 3.41 0.00 0.00 92 1013.4
20170529235104 57 239 22.0 28.0 3.41 0.00 0.00 91 1013.4
20170529234604 60 255 34.0 52.0 3.41 0.00 0.00 72 1013.4
20170529234105 62 243 15.0 27.0 3.41 0.00 0.00 53 1013.2
20170529233604 59 240 11.0 16.0 3.41 0.00 0.00 61 1012.6
20170529233234 61 253 8.0 12.0 3.41 0.00 0.00 62 1012.7
20170529233104 61 253 8.0 12.0 3.41 0.00 0.00 62 1012.7
20170529232605 62 228 12.0 16.0 3.41 0.00 0.00 60 1012.6
20170529232104 60 250 13.0 18.0 3.41 0.00 0.00 60 1012.5
20170529231604 58 255 16.0 21.0 3.41 0.00 0.00 58 1012.7
20170529231106 60 255 13.0 17.0 3.41 0.00 0.00 59 1012.8
20170529230605 61 240 17.0 21.0 3.41 0.00 0.00 58 1012.7
20170529230104 60 249 18.0 23.0 3.41 0.00 0.00 52 1012.5
20170529225604 62 238 16.0 19.0 3.41 0.00 0.00 59 1012.5
20170529225104 61 257 16.0 23.0 3.41 0.00 0.00 54 1012.3
20170529224604 60 253 9.0 17.0 3.41 0.00 0.00 66 1012.4
20170529224106 61 295 6.0 7.0 3.41 0.00 0.00 67 1012.6
20170529223604 59 300 4.0 9.0 3.41 0.00 0.00 68 1012.5
20170529223104 59 316 6.0 10.0 3.41 0.00 0.00 69 1012.5
20170529222605 59 343 7.0 10.0 3.41 0.00 0.00 68 1012.6
20170529222104 58 357 6.0 7.0 3.41 0.00 0.00 68 1012.4
20170529221607 58 20 6.0 7.0 3.41 0.00 0.00 71 1012.5
20170529221106 58 352 8.0 9.0 3.41 0.00 0.00 73 1012.7
20170529220604 58 24 10.0 12.0 3.41 0.00 0.00 73 1012.9
20170529220104 58 352 10.0 14.0 3.41 0.00 0.00 70 1013.0
20170529215605 62 285 13.0 19.0 3.41 0.00 0.00 65 1013.2
20170529215105 64 248 17.0 26.0 3.41 0.00 0.00 56 1013.0
20170529214604 64 253 18.0 26.0 3.41 0.00 0.00 56 1012.8
20170529214106 64 252 18.0 27.0 3.41 0.00 0.00 55 1012.7
20170529213604 63 253 21.0 29.0 3.41 0.00 0.00 54 1012.6
20170529213105 64 221 22.0 29.0 3.41 0.00 0.00 53 1012.3
20170529212605 64 245 21.0 29.0 3.41 0.00 0.00 55 1012.3
20170529212104 65 233 19.0 27.0 3.41 0.00 0.00 57 1012.0
20170529211605 65 232 22.0 28.0 3.41 0.00 0.00 57 1012.1
20170529211105 65 235 23.0 29.0 3.41 0.00 0.00 57 1012.3
20170529210605 65 233 23.0 32.0 3.41 0.00 0.00 58 1012.4
20170529210138 65 236 18.0 28.0 3.41 0.00 0.00 57 1012.4
20170529210104 65 236 18.0 28.0 3.41 0.00 0.00 57 1012.4
20170529205605 65 231 23.0 30.0 3.41 0.00 0.00 55 1012.4
20170529205105 63 217 17.0 29.0 3.41 0.00 0.00 55 1012.3
20170529204604 64 228 18.0 24.0 3.41 0.00 0.00 57 1012.3
20170529204105 65 240 16.0 25.0 3.41 0.00 0.00 58 1012.2
20170529203604 65 233 18.0 23.0 3.41 0.00 0.00 56 1012.5
20170529203104 66 232 18.0 24.0 3.41 0.00 0.00 49 1012.4
20170529202605 65 177 16.0 21.0 3.41 0.00 0.00 47 1012.4
20170529202105 67 231 15.0 19.0 3.41 0.00 0.00 50 1012.3
20170529201605 67 240 16.0 23.0 3.41 0.00 0.00 49 1012.6
20170529200105 66 246 16.0 21.0 3.41 0.00 0.00 49 1012.9
20170529195605 66 246 18.0 26.0 3.41 0.00 0.00 49 1013.0
20170529195105 66 256 16.0 22.0 3.41 0.00 0.00 47 1013.0
20170529194605 66 288 18.0 23.0 3.41 0.00 0.00 48 1013.0
20170529194105 66 293 17.0 26.0 3.41 0.00 0.00 46 1013.3
20170529193605 65 280 17.0 24.0 3.41 0.00 0.00 46 1013.2
20170529193105 65 280 21.0 30.0 3.41 0.00 0.00 45 1013.1
20170529192609 64 257 16.0 24.0 3.41 0.00 0.00 46 1013.2
20170529192105 65 291 17.0 23.0 3.41 0.00 0.00 48 1013.4
20170529191605 65 291 18.0 22.0 3.41 0.00 0.00 47 1013.3
20170529191105 64 276 15.0 21.0 3.41 0.00 0.00 51 1013.4
20170529190605 64 280 20.0 25.0 3.41 0.00 0.00 48 1013.4
20170529190105 64 326 16.0 20.0 3.41 0.00 0.00 46 1013.5
20170529185606 52 271 21.0 26.0 3.41 0.00 0.00 44 1013.4
20170529185105 61 290 18.0 25.0 3.41 0.00 0.00 47 1013.6
20170529184605 61 288 17.0 24.0 3.41 0.00 0.00 43 1013.5
20170529184105 61 293 17.0 24.0 3.41 0.00 0.00 49 1013.5
20170529183605 59 290 18.0 26.0 3.41 0.00 0.00 45 1013.6
20170529183105 59 293 20.0 30.0 3.41 0.00 0.00 46 1013.5
20170529182606 59 267 21.0 29.0 3.41 0.00 0.00 47 1013.5
20170529182105 58 295 22.0 30.0 3.41 0.00 0.00 47 1013.4
20170529181605 57 283 20.0 28.0 3.41 0.00 0.00 49 1013.3
20170529181106 59 290 17.0 22.0 3.41 0.00 0.00 49 1013.3
20170529180605 60 300 19.0 26.0 3.41 0.00 0.00 46 1013.3
20170529180105 63 284 19.0 27.0 3.41 0.00 0.00 52 1013.4
20170529175608 62 298 18.0 24.0 3.41 0.00 0.00 51 1013.5
20170529175105 62 291 16.0 22.0 3.41 0.00 0.00 55 1013.4
20170529174605 61 291 20.0 26.0 3.41 0.00 0.00 56 1013.4
20170529174106 52 285 19.0 26.0 3.41 0.00 0.00 56 1013.4
20170529173605 60 290 19.0 25.0 3.41 0.00 0.00 52 1013.5
20170529173105 60 287 17.0 22.0 3.41 0.00 0.00 53 1013.4
20170529172605 59 291 13.0 19.0 3.41 0.00 0.00 55 1013.5
20170529172105 59 281 18.0 25.0 3.41 0.00 0.00 55 1013.5
20170529171605 60 291 15.0 21.0 3.41 0.00 0.00 58 1013.4
20170529171105 60 314 14.0 21.0 3.41 0.00 0.00 59 1013.4
20170529170605 61 281 17.0 24.0 3.41 0.00 0.00 56 1013.5
20170529170105 60 274 13.0 19.0 3.41 0.00 0.00 60 1013.5
20170529165606 60 318 15.0 20.0 3.41 0.00 0.00 59 1013.6
20170529165105 60 283 18.0 23.0 3.41 0.00 0.00 60 1013.6
20170529164606 60 294 19.0 28.0 3.41 0.00 0.00 60 1013.6
20170529164107 60 280 17.0 21.0 3.41 0.00 0.00 63 1013.5
20170529163605 60 281 21.0 28.0 3.41 0.00 0.00 60 1013.5
20170529163105 60 290 16.0 24.0 3.41 0.00 0.00 66 1013.7
20170529162605 60 304 16.0 20.0 3.41 0.00 0.00 62 1013.7
20170529162109 60 284 17.0 25.0 3.41 0.00 0.00 59 1013.6
20170529161605 60 285 20.0 28.0 3.41 0.00 0.00 60 1013.6
20170529161105 59 281 19.0 27.0 3.41 0.00 0.00 60 1013.6
20170529160606 59 297 21.0 27.0 3.41 0.00 0.00 63 1013.7
20170529160105 60 300 14.0 17.0 3.41 0.00 0.00 68 1013.7
20170529155605 59 294 13.0 21.0 3.41 0.00 0.00 65 1013.7
20170529155106 59 262 20.0 28.0 3.41 0.00 0.00 66 1013.6
20170529154605 59 276 17.0 24.0 3.41 0.00 0.00 67 1013.4
20170529154105 58 287 20.0 28.0 3.41 0.00 0.00 71 1013.4
20170529153606 58 283 20.0 25.0 3.41 0.00 0.00 66 1013.3
20170529153107 59 291 17.0 23.0 3.41 0.00 0.00 69 1013.3
20170529152606 59 269 15.0 20.0 3.41 0.00 0.00 71 1013.3
20170529152105 58 284 16.0 20.0 3.41 0.00 0.00 71 1013.4
20170529151606 59 290 18.0 23.0 3.41 0.00 0.00 72 1013.3
20170529151105 59 287 17.0 22.0 3.41 0.00 0.00 73 1013.2
20170529150607 59 281 21.0 27.0 3.41 0.00 0.00 73 1013.2
20170529150106 59 285 22.0 31.0 3.41 0.00 0.00 71 1013.1
20170529145605 59 290 22.0 31.0 3.41 0.00 0.00 73 1013.1
20170529145106 59 294 17.0 24.0 3.41 0.00 0.00 77 1013.1
20170529144605 59 287 21.0 29.0 3.41 0.00 0.00 81 1013.0
20170529144212 59 288 21.0 27.0 3.41 0.00 0.00 80 1013.1
20170529144106 59 288 21.0 27.0 3.41 0.00 0.00 80 1013.1
20170529143605 58 285 22.0 28.0 3.41 0.00 0.00 79 1012.9
20170529143106 59 294 16.0 21.0 3.41 0.00 0.00 85 1012.8
20170529142605 59 278 16.0 21.0 3.41 0.00 0.00 85 1012.8
20170529142107 58 291 19.0 23.0 3.41 0.00 0.00 87 1012.8
20170529141607 58 287 17.0 23.0 3.41 0.00 0.00 87 1012.8
20170529141107 58 295 13.0 18.0 3.41 0.00 0.00 88 1012.8
20170529140605 58 283 13.0 17.0 3.41 0.00 0.00 90 1012.8
20170529140106 57 285 15.0 24.0 3.41 0.00 0.00 87 1012.7
20170529135607 57 260 14.0 18.0 3.41 0.00 0.00 90 1012.8
20170529135105 57 290 17.0 20.0 3.41 0.00 0.00 91 1012.7
20170529134606 56 288 14.0 18.0 3.41 0.00 0.00 92 1012.8
20170529134105 56 287 11.0 16.0 3.41 0.00 0.00 93 1012.7
20170529133607 56 294 13.0 16.0 3.41 0.00 0.00 94 1012.7
20170529133106 56 295 10.0 12.0 3.41 0.00 0.00 94 1012.6
20170529132605 55 300 10.0 13.0 3.41 0.00 0.00 94 1012.8
20170529132106 55 297 13.0 17.0 3.41 0.00 0.00 94 1012.8
20170529131606 55 267 12.0 14.0 3.41 0.00 0.00 95 1012.7
20170529131107 54 304 9.0 12.0 3.41 0.00 0.00 95 1012.6
20170529130605 54 280 13.0 16.0 3.41 0.00 0.00 95 1012.5
20170529130310 54 308 10.0 13.0 3.41 0.00 0.00 96 1012.6
20170529130228 54 308 10.0 13.0 3.41 0.00 0.00 96 1012.6
20170529130106 54 308 10.0 13.0 3.41 0.00 0.00 96 1012.6
20170529125607 54 290 13.0 16.0 3.41 0.00 0.00 97 1012.5
20170529125106 54 287 13.0 18.0 3.41 0.00 0.00 97 1012.6
20170529124606 53 285 10.0 14.0 3.41 0.00 0.00 98 1012.5
20170529124109 53 322 10.0 13.0 3.41 0.00 0.00 98 1012.5
20170529123605 53 311 11.0 14.0 3.41 0.00 0.00 99 1012.6
20170529123212 53 295 11.0 15.0 3.41 0.00 0.00 99 1012.6
20170529123108 53 295 11.0 15.0 3.41 0.00 0.00 99 1012.6
20170529122606 53 308 10.0 14.0 3.41 0.00 0.00 99 1012.6
20170529122108 52 302 10.0 12.0 3.41 0.00 0.00 99 1012.6
20170529121607 52 300 12.0 15.0 3.41 0.00 0.00 99 1012.5
20170529121108 52 300 13.0 16.0 3.41 0.00 0.00 99 1012.4
20170529120606 52 308 11.0 14.0 3.41 0.00 0.00 99 1012.4
20170529120108 52 290 14.0 18.0 3.41 0.00 0.00 99 1012.3
20170529115607 52 288 14.0 18.0 3.41 0.00 0.00 99 1012.1
20170529115107 52 300 13.0 18.0 3.41 0.00 0.00 99 1012.2
20170529114606 52 291 13.0 17.0 3.41 0.00 0.00 100 1012.2
20170529114106 52 281 13.0 19.0 3.41 0.00 0.00 99 1012.1
20170529113605 52 293 14.0 18.0 3.41 0.00 0.00 100 1012.0
20170529113108 52 298 14.0 17.0 3.41 0.00 0.00 100 1012.0
20170529112654 52 295 12.0 17.0 3.41 0.00 0.00 100 1012.1
20170529112606 52 295 12.0 17.0 3.41 0.00 0.00 100 1012.1
20170529112108 54 288 15.0 20.0 3.41 0.00 0.00 100 1011.9
20170529111606 54 291 13.0 17.0 3.41 0.00 0.00 100 1011.8
20170529111216 52 277 16.0 21.0 3.41 0.00 0.00 100 1011.5
20170529111112 52 277 16.0 21.0 3.41 0.00 0.00 100 1011.5
20170529110606 53 285 15.0 20.0 3.41 0.00 0.00 100 1011.4
20170529110109 53 295 12.0 18.0 3.41 0.00 0.00 100 1011.3
20170529105609 53 297 11.0 15.0 3.41 0.00 0.00 100 1011.2
20170529105108 54 287 15.0 17.0 3.41 0.00 0.00 100 1011.3
20170529104606 54 288 12.0 16.0 3.41 0.00 0.00 100 1011.2
20170529104108 54 281 12.0 15.0 3.41 0.00 0.00 100 1011.2
20170529103606 54 283 12.0 18.0 3.41 0.00 0.00 100 1011.1
20170529103106 54 291 13.0 17.0 3.41 0.00 0.00 100 1011.0
20170529102606 54 283 13.0 17.0 3.41 0.00 0.00 99 1010.9
20170529102113 54 291 11.0 16.0 3.41 0.00 0.00 99 1010.9
20170529101608 54 297 13.0 17.0 3.41 0.00 0.00 99 1010.5
20170529101106 54 300 13.0 17.0 3.41 0.00 0.00 100 1010.5
20170529100606 54 281 14.0 17.0 3.41 0.00 0.00 100 1010.2
20170529100107 55 290 12.0 15.0 3.41 0.00 0.00 99 1010.0
20170529095606 54 288 12.0 17.0 3.41 0.00 0.00 99 1009.9
20170529095106 54 264 12.0 16.0 3.41 0.00 0.00 99 1009.8
20170529094606 55 294 12.0 17.0 3.41 0.00 0.00 99 1009.7
20170529094109 54 293 12.0 16.0 3.41 0.00 0.00 99 1009.6
20170529093607 55 297 14.0 17.0 3.41 0.00 0.00 98 1009.8
20170529093107 55 297 11.0 13.0 3.41 0.00 0.00 98 1009.7
20170529092608 55 307 8.0 10.0 3.41 0.00 0.00 99 1009.4
20170529092107 55 300 9.0 13.0 3.41 0.00 0.00 99 1009.5
20170529091606 55 295 10.0 13.0 3.41 0.00 0.00 99 1009.5
20170529091107 55 298 10.0 14.0 3.41 0.00 0.00 99 1009.7
20170529090607 55 267 12.0 16.0 3.41 0.00 0.00 95 1009.8
20170529090106 55 288 11.0 16.0 3.41 0.00 0.00 92 1009.9
20170529085606 55 287 11.0 15.0 3.41 0.00 0.00 90 1010.1
20170529085107 55 263 12.0 16.0 3.41 0.00 0.00 91 1010.0
20170529084606 55 249 12.0 15.0 3.41 0.00 0.00 90 1010.0
20170529084107 55 257 13.0 19.0 3.41 0.00 0.00 94 1010.0
20170529083607 55 260 12.0 18.0 3.41 0.00 0.00 95 1010.0
20170529083107 55 253 12.0 15.0 3.41 0.00 0.00 96 1009.9
20170529082607 55 246 13.0 16.0 3.41 0.00 0.00 97 1009.9
20170529082107 55 260 12.0 15.0 3.41 0.00 0.00 97 1009.8
20170529081608 55 249 12.0 16.0 3.41 0.00 0.00 97 1009.8
20170529081107 55 252 12.0 16.0 3.41 0.00 0.00 97 1009.9
20170529080606 55 262 10.0 13.0 3.41 0.00 0.00 97 1009.7
20170529080106 56 264 10.0 13.0 3.41 0.00 0.00 97 1009.8
20170529075607 56 269 9.0 13.0 3.41 0.00 0.00 97 1009.9
20170529075106 56 304 9.0 14.0 3.41 0.00 0.00 97 1009.8
20170529074606 56 300 11.0 14.0 3.41 0.00 0.00 97 1009.6
20170529074107 56 307 8.0 10.0 3.41 0.00 0.00 97 1009.6
20170529073609 56 297 10.0 14.0 3.41 0.00 0.00 97 1009.8
20170529073106 56 304 10.0 12.0 3.41 0.00 0.00 97 1009.8
20170529072606 56 287 11.0 15.0 3.41 0.00 0.00 97 1009.7
20170529072107 56 285 11.0 16.0 3.41 0.00 0.00 96 1009.8
20170529071607 56 284 12.0 17.0 3.41 0.00 0.00 96 1010.1
20170529071106 56 294 15.0 20.0 3.41 0.00 0.00 96 1010.0
20170529070607 56 304 11.0 15.0 3.41 0.00 0.00 95 1009.8
20170529070106 56 301 10.0 14.0 3.41 0.00 0.00 95 1009.8
20170529065606 56 266 11.0 14.0 3.41 0.00 0.00 96 1009.9
20170529065106 56 301 11.0 14.0 3.41 0.00 0.00 96 1009.9
20170529064606 56 307 10.0 13.0 3.41 0.00 0.00 96 1009.8
20170529064109 56 291 10.0 13.0 3.41 0.00 0.00 96 1009.8
20170529063606 56 293 11.0 14.0 3.41 0.00 0.00 95 1009.7
20170529063106 56 293 12.0 17.0 3.41 0.00 0.00 95 1009.7
20170529062606 56 285 11.0 16.0 3.41 0.00 0.00 95 1009.8
20170529062107 56 290 12.0 17.0 3.41 0.00 0.00 95 1009.7
20170529061607 56 290 12.0 17.0 3.41 0.00 0.00 95 1009.8
20170529061107 56 284 13.0 18.0 3.41 0.00 0.00 95 1009.8
20170529060606 56 290 12.0 17.0 3.41 0.00 0.00 95 1009.8
20170529060107 56 266 11.0 14.0 3.41 0.00 0.00 95 1009.9
20170529055606 56 295 10.0 14.0 3.41 0.00 0.00 94 1009.8
20170529055106 56 262 10.0 14.0 3.41 0.00 0.00 94 1009.9
20170529054606 56 245 9.0 11.0 3.41 0.00 0.00 93 1009.9
20170529054106 57 243 10.0 11.0 3.41 0.00 0.00 93 1009.9
20170529053607 57 238 10.0 13.0 3.41 0.00 0.00 93 1009.8
20170529053106 57 239 9.0 11.0 3.41 0.00 0.00 92 1009.8
20170529052608 57 224 10.0 13.0 3.41 0.00 0.00 92 1009.6
20170529052107 57 240 10.0 12.0 3.41 0.00 0.00 92 1009.6
20170529051607 57 233 10.0 13.0 3.41 0.00 0.00 92 1009.5
20170529051251 57 243 11.0 12.0 3.41 0.00 0.00 92 1009.5
20170529051107 57 243 11.0 12.0 3.41 0.00 0.00 92 1009.5
20170529050606 57 219 8.0 10.0 3.41 0.00 0.00 92 1009.6
20170529050107 58 242 9.0 11.0 3.41 0.00 0.00 88 1009.6
20170529045606 58 248 10.0 11.0 3.41 0.00 0.00 91 1009.5
20170529045106 58 194 13.0 16.0 3.41 0.00 0.00 91 1009.6
20170529044607 58 210 11.0 17.0 3.41 0.00 0.00 91 1009.6
20170529044108 58 215 14.0 18.0 3.41 0.00 0.00 92 1009.6
20170529043607 58 204 14.0 18.0 3.41 0.00 0.00 92 1009.5
20170529043107 58 198 15.0 17.0 3.41 0.00 0.00 92 1009.7
20170529042607 58 203 7.0 10.0 3.41 0.00 0.00 91 1009.6
20170529042107 58 232 5.0 6.0 3.41 0.00 0.00 91 1009.7
20170529041607 58 236 6.0 7.0 3.41 0.00 0.00 91 1009.9
20170529041107 58 233 6.0 7.0 3.41 0.00 0.00 92 1009.9
20170529040607 57 242 5.0 6.0 3.41 0.00 0.00 92 1009.8
20170529040107 57 238 7.0 7.0 3.41 0.00 0.00 92 1009.8
20170529035607 57 255 7.0 9.0 3.41 0.00 0.00 92 1009.9
20170529035107 57 260 8.0 9.0 3.41 0.00 0.00 92 1010.1
20170529034607 57 177 7.0 8.0 3.41 0.00 0.00 92 1009.8
20170529034107 57 177 7.0 9.0 3.41 0.00 0.00 92 1009.7
20170529033607 57 210 8.0 8.0 3.41 0.00 0.00 91 1009.7
20170529033107 57 181 6.0 8.0 3.41 0.00 0.00 92 1009.8
20170529032607 57 169 8.0 10.0 3.41 0.00 0.00 92 1009.7
20170529032107 57 169 9.0 11.0 3.41 0.00 0.00 92 1009.7
20170529031607 57 160 10.0 12.0 3.41 0.00 0.00 92 1009.3
20170529031107 57 153 10.0 12.0 3.41 0.00 0.00 93 1009.4
20170529030608 57 156 9.0 10.0 3.41 0.00 0.00 93 1009.3